Grub im Wienerwald
Wetterdaten: aktuell Mittwoch, 02.12.2020 17:00
Datum Zeit Temp. A. Feuchte A. Luftdruck Regen Wind Richtung Richtung Sonnenschein UV Solar Taupunkt Windchill Windben
02.12.2020 17:00 -2,8 C 91 % 1017,1 hPa 0,0 l/m 12,6 km/h S 178 0 min 0,0 UV-I 0 W/m -4,1 C -8,7 C 20,9 km/h
02.12.2020 16:57 -2,8 C 91 % 1017,2 hPa 0,0 l/m 10,6 km/h SO 134 0 min 0,0 UV-I 0 W/m -4,1 C -7,1 C 17,7 km/h
02.12.2020 16:54 -2,8 C 91 % 1017,1 hPa 0,0 l/m 9,5 km/h SO 132 0 min 0,0 UV-I 0 W/m -4,1 C -6,1 C 20,9 km/h
02.12.2020 16:51 -2,8 C 91 % 1017,1 hPa 0,0 l/m 12,4 km/h S-SW 196 0 min 0,0 UV-I 0 W/m -4,1 C -8,5 C 24,1 km/h
02.12.2020 16:48 -2,8 C 91 % 1017,1 hPa 0,0 l/m 11,1 km/h S 178 0 min 0,0 UV-I 0 W/m -4,1 C -7,5 C 24,1 km/h
02.12.2020 16:45 -2,7 C 91 % 1017,2 hPa 0,0 l/m 12,3 km/h S-SO 158 0 min 0,0 UV-I 0 W/m -4,0 C -8,3 C 25,7 km/h
02.12.2020 16:42 -2,7 C 91 % 1017,2 hPa 0,0 l/m 10,4 km/h SO 144 0 min 0,0 UV-I 0 W/m -4,0 C -6,8 C 19,3 km/h
02.12.2020 16:39 -2,7 C 91 % 1017,3 hPa 0,0 l/m 10,3 km/h SO 146 0 min 0,0 UV-I 0 W/m -4,0 C -6,7 C 17,7 km/h
02.12.2020 16:36 -2,7 C 91 % 1017,3 hPa 0,0 l/m 11,1 km/h SO 145 0 min 0,0 UV-I 0 W/m -4,0 C -7,4 C 19,3 km/h
02.12.2020 16:33 -2,7 C 91 % 1017,5 hPa 0,0 l/m 8,7 km/h S 184 0 min 0,0 UV-I 0 W/m -4,0 C -5,2 C 16,1 km/h
02.12.2020 16:30 -2,7 C 91 % 1017,4 hPa 0,0 l/m 12,6 km/h SO 140 0 min 0,0 UV-I 0 W/m -4,0 C -8,6 C 20,9 km/h
02.12.2020 16:27 -2,7 C 91 % 1017,5 hPa 0,0 l/m 9,6 km/h S 179 0 min 0,0 UV-I 0 W/m -4,0 C -6,1 C 17,7 km/h
02.12.2020 16:24 -2,7 C 91 % 1017,4 hPa 0,0 l/m 8,3 km/h SO 132 0 min 0,0 UV-I 0 W/m -4,0 C -4,8 C 19,3 km/h
02.12.2020 16:21 -2,7 C 91 % 1017,4 hPa 0,0 l/m 9,7 km/h S-SO 157 0 min 0,0 UV-I 0 W/m -4,0 C -6,2 C 16,1 km/h
02.12.2020 16:18 -2,6 C 91 % 1017,6 hPa 0,0 l/m 6,2 km/h S-SO 152 0 min 0,0 UV-I 0 W/m -3,9 C -2,6 C 12,9 km/h
02.12.2020 16:15 -2,6 C 91 % 1017,7 hPa 0,0 l/m 9,5 km/h S-SO 153 0 min 0,0 UV-I 0 W/m -3,9 C -5,9 C 16,1 km/h
02.12.2020 16:12 -2,6 C 91 % 1017,7 hPa 0,0 l/m 10,0 km/h S-SO 165 0 min 0,0 UV-I 0 W/m -3,9 C -6,3 C 17,7 km/h
02.12.2020 16:09 -2,6 C 91 % 1017,7 hPa 0,0 l/m 10,1 km/h S 172 0 min 0,0 UV-I 0 W/m -3,9 C -6,4 C 19,3 km/h
02.12.2020 16:06 -2,6 C 91 % 1017,8 hPa 0,0 l/m 5,3 km/h SO 139 0 min 0,0 UV-I 0 W/m -3,9 C -2,6 C 12,9 km/h
02.12.2020 16:03 -2,6 C 90 % 1017,9 hPa 0,0 l/m 9,9 km/h SO 142 0 min 0,0 UV-I 0 W/m -4,0 C -6,2 C 20,9 km/h
02.12.2020 16:00 -2,6 C 90 % 1017,9 hPa 0,0 l/m 9,7 km/h SO 144 0 min 0,0 UV-I 5 W/m -4,0 C -6,0 C 17,7 km/h
02.12.2020 15:57 -2,6 C 90 % 1017,9 hPa 0,0 l/m 10,1 km/h S 183 0 min 0,0 UV-I 5 W/m -4,0 C -6,4 C 17,7 km/h
02.12.2020 15:54 -2,6 C 90 % 1017,9 hPa 0,0 l/m 9,1 km/h SO 140 0 min 0,0 UV-I 7 W/m -4,0 C -5,5 C 20,9 km/h
02.12.2020 15:51 -2,6 C 90 % 1017,9 hPa 0,0 l/m 10,0 km/h S-SO 165 0 min 0,0 UV-I 7 W/m -4,0 C -6,3 C 20,9 km/h
02.12.2020 15:48 -2,6 C 90 % 1017,9 hPa 0,0 l/m 9,6 km/h S 169 0 min 0,0 UV-I 7 W/m -4,0 C -6,0 C 16,1 km/h
02.12.2020 15:45 -2,5 C 90 % 1018,0 hPa 0,0 l/m 8,4 km/h S 184 0 min 0,0 UV-I 7 W/m -3,9 C -4,7 C 17,7 km/h
02.12.2020 15:42 -2,5 C 90 % 1018,0 hPa 0,0 l/m 7,1 km/h S 181 0 min 0,0 UV-I 9 W/m -3,9 C -3,3 C 16,1 km/h
02.12.2020 15:39 -2,4 C 90 % 1018,0 hPa 0,0 l/m 12,3 km/h SO 140 0 min 0,0 UV-I 11 W/m -3,8 C -8,0 C 20,9 km/h
02.12.2020 15:36 -2,4 C 90 % 1018,0 hPa 0,0 l/m 11,4 km/h O-SO 123 0 min 0,0 UV-I 11 W/m -3,8 C -7,3 C 24,1 km/h
02.12.2020 15:33 -2,4 C 90 % 1017,9 hPa 0,0 l/m 8,9 km/h SO 126 0 min 0,0 UV-I 12 W/m -3,8 C -5,1 C 19,3 km/h
02.12.2020 15:30 -2,4 C 90 % 1017,9 hPa 0,0 l/m 8,7 km/h SO 143 0 min 0,0 UV-I 18 W/m -3,8 C -4,9 C 17,7 km/h
02.12.2020 15:27 -2,3 C 89 % 1017,8 hPa 0,0 l/m 9,9 km/h SO 139 0 min 0,0 UV-I 19 W/m -3,9 C -5,9 C 22,5 km/h
02.12.2020 15:24 -2,3 C 89 % 1017,8 hPa 0,0 l/m 9,2 km/h S-SO 166 0 min 0,0 UV-I 23 W/m -3,9 C -5,3 C 14,5 km/h
02.12.2020 15:21 -2,3 C 89 % 1017,9 hPa 0,0 l/m 9,4 km/h S 185 0 min 0,0 UV-I 25 W/m -3,9 C -5,4 C 16,1 km/h
02.12.2020 15:18 -2,3 C 89 % 1018,0 hPa 0,0 l/m 7,0 km/h S-SO 155 0 min 0,0 UV-I 30 W/m -3,9 C -3,0 C 14,5 km/h
02.12.2020 15:15 -2,3 C 89 % 1017,9 hPa 0,0 l/m 10,2 km/h S-SO 150 0 min 0,0 UV-I 33 W/m -3,9 C -6,2 C 19,3 km/h
02.12.2020 15:12 -2,2 C 89 % 1017,8 hPa 0,0 l/m 13,2 km/h SO 146 0 min 0,0 UV-I 35 W/m -3,8 C -8,4 C 24,1 km/h
02.12.2020 15:09 -2,2 C 89 % 1017,8 hPa 0,0 l/m 11,2 km/h S 176 0 min 0,0 UV-I 35 W/m -3,8 C -6,9 C 22,5 km/h
02.12.2020 15:06 -2,2 C 89 % 1017,8 hPa 0,0 l/m 10,4 km/h SO 135 0 min 0,0 UV-I 39 W/m -3,8 C -6,2 C 19,3 km/h
02.12.2020 15:03 -2,1 C 89 % 1017,9 hPa 0,0 l/m 9,3 km/h SO 146 0 min 0,0 UV-I 42 W/m -3,7 C -5,1 C 17,7 km/h
02.12.2020 15:00 -2,1 C 89 % 1017,9 hPa 0,0 l/m 10,5 km/h S-SO 164 0 min 0,0 UV-I 40 W/m -3,7 C -6,2 C 17,7 km/h
02.12.2020 14:57 -2,1 C 89 % 1017,9 hPa 0,0 l/m 6,7 km/h S-SO 163 0 min 0,0 UV-I 39 W/m -3,7 C -2,4 C 12,9 km/h
02.12.2020 14:54 -2,0 C 88 % 1018,0 hPa 0,0 l/m 8,4 km/h SO 136 0 min 0,0 UV-I 39 W/m -3,7 C -4,2 C 14,5 km/h
02.12.2020 14:51 -1,9 C 88 % 1018,0 hPa 0,0 l/m 11,2 km/h S-SO 161 0 min 0,0 UV-I 39 W/m -3,6 C -6,6 C 17,7 km/h
02.12.2020 14:48 -1,9 C 88 % 1018,0 hPa 0,0 l/m 10,6 km/h S-SO 156 0 min 0,0 UV-I 39 W/m -3,6 C -6,1 C 17,7 km/h
02.12.2020 14:45 -1,9 C 88 % 1018,0 hPa 0,0 l/m 9,4 km/h S 174 0 min 0,0 UV-I 42 W/m -3,6 C -5,0 C 19,3 km/h
02.12.2020 14:42 -1,8 C 88 % 1018,0 hPa 0,0 l/m 11,2 km/h SO 133 0 min 0,0 UV-I 46 W/m -3,5 C -6,4 C 22,5 km/h
02.12.2020 14:39 -1,8 C 88 % 1018,1 hPa 0,0 l/m 13,0 km/h S-SO 157 0 min 0,0 UV-I 51 W/m -3,5 C -7,8 C 27,4 km/h
02.12.2020 14:36 -1,8 C 88 % 1018,1 hPa 0,0 l/m 13,8 km/h S-SO 157 0 min 0,0 UV-I 49 W/m -3,5 C -8,4 C 24,1 km/h
02.12.2020 14:33 -1,7 C 88 % 1018,0 hPa 0,0 l/m 12,8 km/h S-SO 163 0 min 0,0 UV-I 53 W/m -3,4 C -7,6 C 27,4 km/h
02.12.2020 14:30 -1,7 C 88 % 1018,0 hPa 0,0 l/m 11,6 km/h S-SO 153 0 min 0,0 UV-I 56 W/m -3,4 C -6,7 C 22,5 km/h
02.12.2020 14:27 -1,6 C 89 % 1018,0 hPa 0,0 l/m 13,1 km/h S-SO 153 0 min 0,0 UV-I 58 W/m -3,2 C -7,6 C 22,5 km/h
02.12.2020 14:24 -1,6 C 89 % 1018,0 hPa 0,0 l/m 11,0 km/h S-SO 157 0 min 0,6 UV-I 62 W/m -3,2 C -6,1 C 19,3 km/h
02.12.2020 14:21 -1,6 C 89 % 1018,0 hPa 0,0 l/m 9,8 km/h SO 139 0 min 0,6 UV-I 72 W/m -3,2 C -5,0 C 22,5 km/h
02.12.2020 14:18 -1,6 C 89 % 1018,0 hPa 0,0 l/m 9,1 km/h S-SO 165 0 min 0,6 UV-I 81 W/m -3,2 C -4,4 C 17,7 km/h
02.12.2020 14:15 -1,6 C 89 % 1018,1 hPa 0,0 l/m 9,0 km/h SO 141 0 min 0,6 UV-I 90 W/m -3,2 C -4,3 C 16,1 km/h
02.12.2020 14:12 -1,6 C 89 % 1018,1 hPa 0,0 l/m 9,5 km/h O-SO 122 0 min 0,6 UV-I 97 W/m -3,2 C -4,8 C 17,7 km/h
02.12.2020 14:09 -1,6 C 89 % 1018,2 hPa 0,0 l/m 10,0 km/h SO 137 0 min 0,7 UV-I 111 W/m -3,2 C -5,2 C 20,9 km/h
02.12.2020 14:06 -1,6 C 89 % 1018,1 hPa 0,0 l/m 11,8 km/h S-SO 150 0 min 0,7 UV-I 116 W/m -3,2 C -6,7 C 22,5 km/h
02.12.2020 14:03 -1,6 C 89 % 1018,2 hPa 0,0 l/m 11,5 km/h S-SO 159 0 min 0,7 UV-I 111 W/m -3,2 C -6,5 C 17,7 km/h
02.12.2020 14:00 -1,6 C 89 % 1018,2 hPa 0,0 l/m 12,1 km/h S-SO 155 0 min 0,7 UV-I 104 W/m -3,2 C -6,9 C 24,1 km/h
02.12.2020 13:57 -1,6 C 89 % 1018,3 hPa 0,0 l/m 12,3 km/h SO 130 0 min 0,7 UV-I 98 W/m -3,2 C -7,1 C 20,9 km/h
02.12.2020 13:54 -1,6 C 89 % 1018,3 hPa 0,0 l/m 13,3 km/h SO 146 0 min 0,7 UV-I 91 W/m -3,2 C -7,8 C 22,5 km/h
02.12.2020 13:51 -1,6 C 89 % 1018,3 hPa 0,0 l/m 11,7 km/h SO 133 0 min 0,7 UV-I 84 W/m -3,2 C -6,6 C 22,5 km/h
02.12.2020 13:48 -1,6 C 89 % 1018,3 hPa 0,0 l/m 9,8 km/h SO 144 0 min 0,7 UV-I 84 W/m -3,2 C -5,0 C 17,7 km/h
02.12.2020 13:45 -1,5 C 89 % 1018,3 hPa 0,0 l/m 12,4 km/h S-SO 148 0 min 0,7 UV-I 72 W/m -3,1 C -7,0 C 22,5 km/h
02.12.2020 13:42 -1,4 C 90 % 1018,3 hPa 0,0 l/m 13,0 km/h O-SO 110 0 min 0,7 UV-I 69 W/m -2,8 C -7,3 C 24,1 km/h
02.12.2020 13:39 -1,4 C 90 % 1018,4 hPa 0,0 l/m 9,9 km/h S-SO 163 0 min 0,7 UV-I 69 W/m -2,8 C -4,9 C 16,1 km/h
02.12.2020 13:36 -1,4 C 91 % 1018,4 hPa 0,0 l/m 8,6 km/h O 84 0 min 0,8 UV-I 70 W/m -2,7 C -3,7 C 17,7 km/h
02.12.2020 13:33 -1,4 C 91 % 1018,5 hPa 0,0 l/m 9,0 km/h S-SO 148 0 min 0,8 UV-I 81 W/m -2,7 C -4,1 C 16,1 km/h
02.12.2020 13:30 -1,4 C 91 % 1018,4 hPa 0,0 l/m 10,6 km/h S-SO 148 0 min 0,8 UV-I 90 W/m -2,7 C -5,5 C 20,9 km/h
02.12.2020 13:27 -1,5 C 91 % 1018,5 hPa 0,0 l/m 10,4 km/h SO 132 3 min 0,8 UV-I 183 W/m -2,8 C -5,5 C 17,7 km/h
02.12.2020 13:24 -1,5 C 91 % 1018,6 hPa 0,0 l/m 7,3 km/h SO 134 3 min 0,9 UV-I 244 W/m -2,8 C -2,5 C 16,1 km/h
02.12.2020 13:21 -1,5 C 91 % 1018,7 hPa 0,0 l/m 9,7 km/h S-SO 149 0 min 0,9 UV-I 139 W/m -2,8 C -4,8 C 20,9 km/h
02.12.2020 13:18 -1,6 C 91 % 1018,8 hPa 0,0 l/m 9,1 km/h S-SO 150 0 min 0,9 UV-I 142 W/m -2,9 C -4,4 C 19,3 km/h
02.12.2020 13:15 -1,6 C 92 % 1018,9 hPa 0,0 l/m 11,6 km/h SO 142 0 min 0,8 UV-I 109 W/m -2,7 C -6,5 C 22,5 km/h
02.12.2020 13:12 -1,6 C 92 % 1019,0 hPa 0,0 l/m 11,1 km/h SO 142 0 min 0,9 UV-I 148 W/m -2,7 C -6,1 C 24,1 km/h
02.12.2020 13:09 -1,6 C 92 % 1019,0 hPa 0,0 l/m 9,0 km/h S 186 3 min 0,9 UV-I 248 W/m -2,7 C -4,3 C 16,1 km/h
02.12.2020 13:06 -1,7 C 92 % 1019,0 hPa 0,0 l/m 8,1 km/h S-SO 163 3 min 1,0 UV-I 260 W/m -2,8 C -3,5 C 17,7 km/h
02.12.2020 13:03 -1,7 C 92 % 1018,9 hPa 0,0 l/m 9,3 km/h S-SO 157 3 min 1,0 UV-I 251 W/m -2,8 C -4,7 C 16,1 km/h
02.12.2020 13:00 -1,8 C 93 % 1018,9 hPa 0,0 l/m 11,6 km/h SO 137 3 min 1,0 UV-I 292 W/m -2,8 C -6,8 C 20,9 km/h
02.12.2020 12:57 -1,8 C 93 % 1018,9 hPa 0,0 l/m 11,5 km/h SO 126 3 min 1,0 UV-I 241 W/m -2,8 C -6,7 C 19,3 km/h
02.12.2020 12:54 -1,9 C 93 % 1018,9 hPa 0,0 l/m 9,7 km/h S 189 3 min 1,0 UV-I 236 W/m -2,9 C -5,3 C 17,7 km/h
02.12.2020 12:51 -1,9 C 93 % 1018,9 hPa 0,0 l/m 8,9 km/h S 182 3 min 1,0 UV-I 230 W/m -2,9 C -4,5 C 16,1 km/h
02.12.2020 12:48 -2,1 C 93 % 1019,0 hPa 0,0 l/m 10,9 km/h S 170 3 min 1,0 UV-I 306 W/m -3,1 C -6,5 C 17,7 km/h
02.12.2020 12:45 -2,1 C 93 % 1019,0 hPa 0,0 l/m 9,5 km/h S 173 3 min 0,9 UV-I 179 W/m -3,1 C -5,3 C 16,1 km/h
02.12.2020 12:42 -2,1 C 93 % 1019,1 hPa 0,0 l/m 9,6 km/h S-SO 159 0 min 0,9 UV-I 127 W/m -3,1 C -5,4 C 16,1 km/h
02.12.2020 12:39 -2,2 C 93 % 1019,1 hPa 0,0 l/m 10,8 km/h S-SW 201 0 min 0,9 UV-I 135 W/m -3,2 C -6,6 C 22,5 km/h
02.12.2020 12:36 -2,2 C 93 % 1019,1 hPa 0,0 l/m 11,0 km/h SO 145 3 min 0,9 UV-I 202 W/m -3,2 C -6,7 C 30,6 km/h
02.12.2020 12:33 -2,2 C 93 % 1019,2 hPa 0,0 l/m 13,5 km/h S 182 0 min 0,8 UV-I 130 W/m -3,2 C -8,6 C 24,1 km/h
02.12.2020 12:30 -2,2 C 93 % 1019,2 hPa 0,0 l/m 11,7 km/h S-SO 158 0 min 0,9 UV-I 134 W/m -3,2 C -7,3 C 25,7 km/h
_ Min-Zeit 23:54 14:30 16:48 - 02:48 - - - - - 23:54 08:03 02:48
Minimum _ -3,8 C 88 % 1017,1 hPa - 2,3 km/h - - - - - -4,8 C -11,2 C 6,4 km/h
_ Max-Zeit 13:30 20:30 23:15 18:00 08:03 - - 12:18 12:00 12:48 20:30 14:57 18:45
Maximum _ -1,4 C 100 % 1022,3 hPa 0,0 l/m 15,4 km/h
SO
- - 3 min 1,0 UV-I 306 W/m -2,5 C -2,4 C 30,6 km/h
SO
Durchschnitt _ -2,7 C 93 % 1020,6 hPa #0,0 l/m 9,8 km/h SO - #42 min. 0,8 UV-I 79 W/m -3,7 C -6,2 C 18,4 km/h
Schulla EDV